Regional Weather Roundup
Issued by NWS Albany, NY

Home | Current Version | Previous Version | Text Only | Print | Product List | Glossary On
Versions: 1 2 3 4 5 6 7 8 9 10 11 12 13 14 15 16 17 18 19 20 21 22 23 24 25 26 27 28 29 30 31 32 33 34 35 36 37 38 39 40 41 42 43 44 45 46 47 48 49 50
000
ASUS41 KALY 150910
RWRALY

NEW YORK STATE HOURLY WEATHER ROUNDUP
NATIONAL WEATHER SERVICE ALBANY NY
500 AM EDT MON SEP 15 2014

NOTE: "FAIR" INDICATES FEW OR NO CLOUDS BELOW 12,000 FEET WITH NO
SIGNIFICANT WEATHER AND/OR NO OBSTRUCTIONS TO VISIBILITY.

NYZ032-033-038>043-046>054-057>066-NYZ062>081-151000-
EAST


CITY           SKY/WX    TMP DP  RH WIND       PRES   REMARKS
ALBANY         MOCLDY    46  42  86 CALM      30.25R
GLENS FALLS    PTCLDY    43  42  97 CALM      30.24S FOG
POUGHKEEPSIE   CLOUDY    45  43  93 CALM      30.24R
NEWBURGH       MOCLDY    48  48 100 CALM      30.25
MONTGOMERY     CLOUDY    46  43  89 CALM      30.24R
WHITE PLAINS   PTCLDY    51  42  71 N8        30.21R
ISLIP          MOCLDY    55  50  83 N5        30.19R
NEW YORK CITY  CLEAR     56  45  66 N8        30.21R
CENTRAL PARK   CLEAR     56  42  59 VRB5      30.24R
$$

NYZ005>009-017-018-044>046-055-056-151000-
CENTRAL


CITY           SKY/WX    TMP DP  RH WIND       PRES   REMARKS
FULTON         PTCLDY    43  40  89 SE3       30.22S
SYRACUSE       MOCLDY    49  46  90 SE3       30.23S
ROME           CLEAR     40  39  97 CALM      30.26R
ELMIRA         CLOUDY    50  48  93 S3        30.23F
BINGHAMTON     CLOUDY    48  44  86 CALM      30.23R
MONTICELLO     CLOUDY    43  43 100 CALM      30.24S
$$

NYZ026>034-041>043-151000-
NORTH


CITY           SKY/WX    TMP DP  RH WIND       PRES   REMARKS
WATERTOWN      CLOUDY    45  38  76 CALM      30.21S
FORT DRUM      NOT AVBL
MASSENA        CLOUDY    42  41  96 S3        30.22S
SARANAC LAKE   FOG       37  37 100 SW3       30.20S VSB 1/4
PLATTSBURGH    CLEAR     36  35  96 CALM      30.23R
$$

NYZ001>004-010>016-019>021-151000-
WEST


CITY           SKY/WX    TMP DP  RH WIND       PRES   REMARKS
NIAGARA FALLS  CLOUDY    54  47  77 CALM      30.20S
BUFFALO        CLOUDY    53  46  77 SE5       30.21S
DUNKIRK        CLOUDY    53  49  86 E3        30.22R
JAMESTOWN      CLOUDY    48  45  87 CALM      30.22S
WELLSVILLE     CLOUDY    48  44  86 CALM      30.24S
ROCHESTER      CLOUDY    50  46  86 SW3       30.22S
PENN YAN       CLOUDY    51  46  83 S3        30.23S
$$

             KEY
       WCI = WIND CHILL INDEX
       VSB = VISIBILITY
       HX  = HEAT INDEX
$$


USA.gov is the U.S. government's official web portal to all federal, state and local government web resources and services.